"Timestamp","TZ","WindDir_Mean (deg)","WindSpd_Mean (km/h)","WindSpd_Min (km/h)","WindSpd_Max (km/h)","Temp_Mean (deg)","RH_Mean (%)","MSLP_Mean (hPa)","Rain_Acc (mm)","Rain_Intensity (mm/h)","Hail_Acc (hits/cm2)","Hail_Intensity (hits/cm2hr)","Solar_Mean (W/m2)"
2020/09/26 00:00:00.001,n,5,11.88,11.16,14.04,21.8,66,1009.92,0,0,0,0,0.036545
2020/09/26 00:01:00.000,n,33,12.96,7.56,16.2,21.9,65.800004,1009.92,0,0,0,0,0.0383
2020/09/26 00:02:00.000,n,19,6.48,2.16,10.440002,21.9,66.199996,1009.92,0,0,0,0,0.034828
2020/09/26 00:03:00.000,n,5,9,7.2,10.08,21.9,66.199996,1009.92,0,0,0,0,0.037422
2020/09/26 00:04:00.000,n,347,7.92,6.48,12.24,21.8,66.300004,1009.92,0,0,0,0,0.030479
2020/09/26 00:05:00.005,n,0,7.92,5.04,10.8,21.8,66.5,1009.92,0,0,0,0,0.037422
2020/09/26 00:06:00.002,n,349,9.72,6.48,10.440002,21.8,67,1009.92,0,0,0,0,0.034828
2020/09/26 00:07:00.000,n,336,12.96,11.52,14.4,21.8,66.6,1009.82,0,0,0,0,0.032196
2020/09/26 00:08:00.013,n,354,19.44,16.919998,23.04,21.8,66.300004,1009.82,0,0,0,0,0.031319
2020/09/26 00:09:00.010,n,344,16.2,11.88,24.119998,21.8,66,1009.82,0,0,0,0,0.034828
2020/09/26 00:10:00.000,n,336,5.76,2.16,7.92,21.8,66,1009.92,0,0,0,0,0.033951
2020/09/26 00:11:00.000,n,0,11.52,10.8,12.6,21.9,65.699996,1009.92,0,0,0,0,0.034828
2020/09/26 00:12:00.000,n,22,5.04,2.88,6.84,21.9,66.6,1009.92,0,0,0,0,0.033073
2020/09/26 00:13:00.000,n,344,6.84,4.68,8.28,21.9,66.6,1009.92,0,0,0,0,0.031319
2020/09/26 00:14:00.000,n,308,4.32,3.96,5.04,21.8,67.4,1009.92,0,0,0,0,0.030479
2020/09/26 00:15:00.008,n,340,5.4,1.08,8.64,21.8,66.4,1009.92,0,0,0,0,0.034828
2020/09/26 00:16:00.005,n,303,4.32,3.6,4.68,21.8,67,1009.92,0,0,0,0,0.030479
2020/09/26 00:17:00.002,n,357,10.440002,8.28,12.96,21.7,66.9,1009.92,0,0,0,0,0.030479
2020/09/26 00:18:00.015,n,343,16.919998,13.68,19.8,21.7,66.699996,1009.92,0,0,0,0,0.034828
2020/09/26 00:19:00.000,n,13,8.28,5.4,9.72,21.7,67.3,1009.92,0,0,0,0,0.034828
2020/09/26 00:20:00.000,n,12,13.68,11.52,15.12,21.7,67,1009.92,0,0,0,0,0.032196
2020/09/26 00:21:00.000,n,343,14.4,12.96,15.12,21.6,66.9,1009.92,0,0,0,0,0.032196
2020/09/26 00:22:00.007,n,346,15.12,12.96,18,21.6,67.2,1009.92,0,0,0,0,0.031319
2020/09/26 00:23:00.004,n,0,11.52,10.8,12.6,21.6,67.1,1009.92,0,0,0,0,0.034828
2020/09/26 00:24:00.001,n,0,10.08,8.64,11.88,21.6,67.3,1010.02,0,0,0,0,0.026093
2020/09/26 00:25:00.000,n,43,5.04,3.24,6.48,21.6,67.4,1010.02,0,0,0,0,0.029602
2020/09/26 00:26:00.011,n,346,16.2,14.04,18.359998,21.6,67.6,1010.02,0,0,0,0,0.029602
2020/09/26 00:27:00.009,n,357,12.24,10.440002,12.96,21.6,67.7,1010.02,0,0,0,0,0.032196
2020/09/26 00:28:00.000,n,343,11.52,9.72,13.32,21.5,68.5,1010.02,0,0,0,0,0.030479
2020/09/26 00:29:00.002,n,72,3.24,1.08,7.92,21.5,67.8,1010.12,0,0,0,0,0.030479
2020/09/26 00:30:00.000,n,347,20.519998,19.08,22.68,21.5,67.8,1009.92,0,0,0,0,0.034828
2020/09/26 00:31:00.000,n,348,12.24,10.8,13.32,21.5,68.3,1010.02,0,0,0,0,0.030479
2020/09/26 00:32:00.000,n,5,12.96,10.8,14.76,21.5,68.1,1009.92,0,0,0,0,0.031319
2020/09/26 00:33:00.007,n,5,5.76,1.8,7.56,21.4,68.3,1010.02,0,0,0,0,0.024376
2020/09/26 00:34:00.004,n,344,20.519998,19.44,21.599998,21.5,68.5,1010.02,0,0,0,0,0.029602
2020/09/26 00:35:00.002,n,66,7.56,4.68,8.64,21.4,68.4,1010.02,0,0,0,0,0.027885
2020/09/26 00:36:00.015,n,334,11.16,9.72,13.68,21.4,68.8,1010.02,0,0,0,0,0.027885
2020/09/26 00:37:00.000,n,354,12.6,11.16,13.32,21.4,68.7,1010.02,0,0,0,0,0.029602
2020/09/26 00:38:00.000,n,355,12.6,10.8,15.12,21.4,68.9,1010.02,0,0,0,0,0.02697
2020/09/26 00:39:00.000,n,5,14.4,11.88,16.56,21.3,68.7,1010.02,0,0,0,0,0.024376
2020/09/26 00:40:00.004,n,329,5.04,4.32,5.76,21.3,68.9,1010.02,0,0,0,0,0.026093
2020/09/26 00:41:00.002,n,352,8.64,7.92,9.72,21.3,69.6,1010.12,0,0,0,0,0.026093
2020/09/26 00:42:00.000,n,327,9.36,7.56,10.440002,21.3,69.2,1010.12,0,0,0,0,0.024376
2020/09/26 00:43:00.000,n,65,2.88,1.44,7.2,21.3,69.9,1010.12,0,0,0,0,0.026093
2020/09/26 00:44:00.009,n,9,5.04,2.52,7.56,21.4,70.4,1010.12,0,0,0,0,0.020027
2020/09/26 00:45:00.006,n,0,11.52,9.72,12.6,21.4,69.1,1010.12,0,0,0,0,0.02697
2020/09/26 00:46:00.000,n,26,5.4,3.96,6.12,21.3,69.4,1010.12,0,0,0,0,0.023499
2020/09/26 00:47:00.000,n,295,8.28,7.56,9.36,21.3,70.6,1010.12,0,0,0,0,0.02697
2020/09/26 00:48:00.000,n,358,9,7.56,12.24,21.3,69.7,1010.02,0,0,0,0,0.021744
2020/09/26 00:49:00.000,n,289,6.48,5.4,7.56,21.3,70.2,1010.22,0,0,0,0,0.026093
2020/09/26 00:50:00.000,n,308,5.76,5.04,6.12,21.3,69.8,1010.22,0,0,0,0,0.020027
2020/09/26 00:51:00.008,n,345,10.08,8.64,10.8,21.3,70.4,1010.22,0,0,0,0,0.025253
2020/09/26 00:52:00.004,n,12,1.08,0.36,1.8,21.3,69.9,1010.22,0,0,0,0,0.024376
2020/09/26 00:53:00.001,n,293,4.32,3.6,4.68,21.3,70.9,1010.32,0,0,0,0,0.022621
2020/09/26 00:54:00.015,n,15,3.6,2.16,5.4,21.3,70.4,1010.32,0,0,0,0,0.026093
2020/09/26 00:55:00.000,n,330,6.48,3.24,7.56,21.3,71,1010.32,0,0,0,0,0.026093
2020/09/26 00:56:00.000,n,319,4.68,3.96,6.12,21.3,70.6,1010.32,0,0,0,0,0.01915
2020/09/26 00:57:00.000,n,0,6.12,4.32,7.92,21.2,69.6,1010.32,0,0,0,0,0.021744
2020/09/26 00:58:00.002,n,0,3.6,1.08,8.64,21.2,69.7,1010.22,0,0,0,0,0.023499
2020/09/26 00:59:00.000,n,352,7.2,5.04,9.72,21.2,70,1010.22,0,0,0,0,0.020866
2020/09/26 01:00:00.000,n,293,4.32,2.16,6.12,21.1,70.4,1010.32,0,0,0,0,0.025253
2020/09/26 01:01:00.011,n,352,3.24,1.8,4.68,21.1,69.8,1010.22,0,0,0,0,0.023499
2020/09/26 01:02:00.008,n,331,3.96,2.52,5.76,21.1,70.3,1010.32,0,0,0,0,0.027885
2020/09/26 01:03:00.005,n,6,6.12,5.04,7.92,21.1,69.6,1010.32,0,0,0,0,0.023499
2020/09/26 01:04:00.000,n,2,9.72,9,10.08,21.1,69.5,1010.32,0,0,0,0,0.023499
2020/09/26 01:05:00.000,n,299,7.92,6.12,10.08,21.1,71,1010.32,0,0,0,0,0.023499
2020/09/26 01:06:00.000,n,125,1.44,0.72,3.24,21.2,71,1010.32,0,0,0,0,0.022621
2020/09/26 01:07:00.000,n,303,9.72,6.84,11.16,21.2,70.4,1010.32,0,0,0,0,0.02697
2020/09/26 01:08:00.007,n,251,2.52,1.8,3.24,21.2,70.7,1010.32,0,0,0,0,0.023499
2020/09/26 01:09:00.005,n,313,4.68,3.24,5.04,21.2,70.9,1010.32,0,0,0,0,0.023499
2020/09/26 01:10:00.002,n,357,5.76,3.96,6.48,21.2,71.6,1010.32,0,0,0,0,0.027885
2020/09/26 01:11:00.000,n,75,1.08,0.72,1.8,21.2,70.6,1010.32,0,0,0,0,0.024376
2020/09/26 01:12:00.012,n,353,3.24,2.52,3.6,21.1,70.7,1010.32,0,0,0,0,0.01915
2020/09/26 01:13:00.000,n,350,10.08,8.64,11.88,21.1,70.6,1010.22,0,0,0,0,0.024376
2020/09/26 01:14:00.000,n,288,6.84,6.12,7.56,21,71.3,1010.22,0,0,0,0,0.024376
2020/09/26 01:15:00.004,n,342,9.72,9.36,10.8,21,70.3,1010.22,0,0,0,0,0.021744
2020/09/26 01:16:00.001,n,346,10.440002,8.28,11.88,20.9,70.7,1010.12,0,0,0,0,0.025253
2020/09/26 01:17:00.000,n,11,9.72,8.28,11.16,20.9,70.6,1010.12,0,0,0,0,0.024376
2020/09/26 01:18:00.000,n,347,4.32,2.88,5.76,20.9,70.7,1010.12,0,0,0,0,0.024376
2020/09/26 01:19:00.009,n,319,1.8,1.08,2.52,20.9,71.1,1010.12,0,0,0,0,0.027885
2020/09/26 01:20:00.006,n,252,1.08,0.36,2.88,20.9,71,1010.12,0,0,0,0,0.021744
2020/09/26 01:21:00.004,n,358,10.440002,10.08,11.16,20.9,70.6,1010.02,0,0,0,0,0.026093
2020/09/26 01:22:00.002,n,351,5.04,3.6,7.56,20.9,71.3,1010.02,0,0,0,0,0.023499
2020/09/26 01:23:00.000,n,329,3.6,0.72,6.48,20.9,71.6,1010.12,0,0,0,0,0.025253
2020/09/26 01:24:00.000,n,354,9.72,9,10.08,20.9,71.4,1010.12,0,0,0,0,0.023499
2020/09/26 01:25:00.000,n,9,11.16,9.36,11.52,20.8,71.1,1010.02,0,0,0,0,0.020027
2020/09/26 01:26:00.006,n,355,7.2,5.04,9,20.8,71.7,1010.12,0,0,0,0,0.021744
2020/09/26 01:27:00.003,n,269,2.16,1.44,2.52,20.8,71.4,1010.12,0,0,0,0,0.029602
2020/09/26 01:28:00.002,n,352,7.2,5.76,9,20.8,71.2,1010.12,0,0,0,0,0.032196
2020/09/26 01:29:00.000,n,350,7.56,6.48,9.72,20.8,71.3,1010.12,0,0,0,0,0.029602
2020/09/26 01:30:00.014,n,295,5.76,5.04,6.48,20.8,72.5,1010.12,0,0,0,0,0.033989
2020/09/26 01:31:00.000,n,353,6.12,5.04,6.48,20.8,71.8,1010.12,0,0,0,0,0.033073
2020/09/26 01:32:00.000,n,207,5.04,4.32,5.4,20.8,71.7,1010.12,0,0,0,0,0.030479
2020/09/26 01:33:00.005,n,246,3.24,2.16,3.96,20.7,72.7,1010.12,0,0,0,0,0.030479
2020/09/26 01:34:00.003,n,298,6.12,5.4,7.56,20.7,73,1010.12,0,0,0,0,0.031357
2020/09/26 01:35:00.000,n,344,1.8,0.72,2.88,20.7,72.9,1010.12,0,0,0,0,0.033073
2020/09/26 01:36:00.000,n,287,6.48,6.12,6.84,20.7,72.5,1010.12,0,0,0,0,0.030479
2020/09/26 01:37:00.010,n,287,7.2,5.76,9.36,20.7,73.3,1010.12,0,0,0,0,0.030479
2020/09/26 01:38:00.008,n,279,2.16,1.8,2.52,20.6,73.1,1010.12,0,0,0,0,0.030479
2020/09/26 01:39:00.004,n,302,2.88,2.16,4.32,20.6,73.2,1010.12,0,0,0,0,0.027847
2020/09/26 01:40:00.001,n,282,10.8,8.64,12.6,20.6,73.4,1010.12,0,0,0,0,0.027008
2020/09/26 01:41:00.000,n,275,9,7.92,9.72,20.7,73.2,1010.12,0,0,0,0,0.030479
2020/09/26 01:42:00.000,n,279,5.76,4.68,6.48,20.6,73.1,1010.12,0,0,0,0,0.028763
2020/09/26 01:43:00.000,n,286,8.28,6.48,9.72,20.6,73.2,1010.12,0,0,0,0,0.026131
2020/09/26 01:44:00.006,n,317,3.96,3.24,5.76,20.6,72.5,1010.12,0,0,0,0,0.029602
2020/09/26 01:45:00.004,n,307,9.36,7.2,11.52,20.5,73.6,1010.12,0,0,0,0,0.032196
2020/09/26 01:46:00.001,n,268,2.16,1.8,3.24,20.5,73.4,1010.12,0,0,0,0,0.026131
2020/09/26 01:47:00.014,n,269,6.12,3.96,8.28,20.5,72.8,1010.12,0,0,0,0,0.026131
2020/09/26 01:48:00.013,n,66,0.72,0.36,1.08,20.5,73.5,1010.12,0,0,0,0,0.026131
2020/09/26 01:49:00.000,n,250,3.96,3.24,4.32,20.5,73.3,1010.12,0,0,0,0,0.027008
2020/09/26 01:50:00.000,n,256,3.96,2.88,4.68,20.5,73.1,1010.22,0,0,0,0,0.025253
2020/09/26 01:51:00.005,n,232,4.68,4.32,5.4,20.4,72.9,1010.22,0,0,0,0,0.027847
2020/09/26 01:52:00.002,n,262,5.4,4.32,7.56,20.3,72.9,1010.22,0,0,0,0,0.024414
2020/09/26 01:53:00.001,n,240,6.12,5.04,7.2,20.3,73,1010.32,0,0,0,0,0.026131
2020/09/26 01:54:00.000,n,263,6.12,4.32,9.72,20.2,73,1010.32,0,0,0,0,0.027847
2020/09/26 01:55:00.011,n,291,10.08,9.36,11.16,20.2,74.3,1010.32,0,0,0,0,0.028763
2020/09/26 01:56:00.009,n,332,9.72,6.84,12.24,20.4,76.6,1010.32,0,0,0,0,0.025253
2020/09/26 01:57:00.006,n,354,9.72,6.84,11.88,20.4,73.7,1010.32,0,0,0,0,0.027008
2020/09/26 01:58:00.000,n,265,9.36,8.64,10.440002,20.3,72.4,1010.22,0,0,0,0,0.027008
2020/09/26 01:59:00.000,n,280,7.2,6.12,7.56,20.2,71.9,1010.32,0,0,0,0,0.022621
2020/09/26 02:00:00.000,n,264,8.28,6.12,9.72,20.2,72.4,1010.32,0,0,0,0,0.026131
2020/09/26 02:01:00.000,n,269,7.56,6.48,9.72,20.2,72,1010.32,0,0,0,0,0.027008
2020/09/26 02:02:00.006,n,297,9,6.48,10.08,20.1,70.3,1010.32,0,0,0,0,0.025253
2020/09/26 02:03:00.003,n,266,7.92,7.2,9.36,20,68.9,1010.42,0,0,0,0,0.023499
2020/09/26 02:04:00.000,n,248,9.36,8.64,10.8,20,65.800004,1010.32,0,0,0,0,0.027008
2020/09/26 02:05:00.013,n,267,19.08,15.84,21.96,20,62,1010.32,0,0,0,0,0.024414
2020/09/26 02:06:00.010,n,255,23.04,20.16,25.199998,20.2,58.2,1010.32,0,0,0,0,0.023499
2020/09/26 02:07:00.000,n,258,19.8,16.2,21.599998,20.4,56.3,1010.32,0,0,0,0,0.023499
2020/09/26 02:08:00.000,n,258,23.4,18.72,26.64,20.6,53.7,1010.32,0,0,0,0,0.025253
2020/09/26 02:09:00.000,n,253,16.2,14.76,18.72,20.8,52.3,1010.42,0,0,0,0,0.020905
2020/09/26 02:10:00.000,n,265,26.28,21.96,29.16,21,49.6,1010.32,0,0,0,0,0.020905
2020/09/26 02:11:00.000,n,255,26.64,22.68,29.88,21.2,48.9,1010.32,0,0,0,0,0.015678
2020/09/26 02:12:00.008,n,261,21.599998,19.8,24.119998,21.4,46.9,1010.32,0,0,0,0,0.020027
2020/09/26 02:13:00.006,n,255,21.24,18.359998,23.04,21.4,45.9,1010.32,0,0,0,0,0.021782
2020/09/26 02:14:00.003,n,267,22.68,17.64,25.199998,21.5,44.2,1010.32,0,0,0,0,0.030479
2020/09/26 02:15:00.000,n,264,23.4,22.319998,25.919998,21.5,44,1010.42,0,0,0,0,0.023537
2020/09/26 02:16:00.000,n,256,24.84,21.599998,28.08,21.5,42.9,1010.42,0,0,0,0,0.026131
2020/09/26 02:17:00.000,n,279,25.919998,20.16,30.96,21.5,42.7,1010.42,0,0,0,0,0.027008
2020/09/26 02:18:00.000,n,267,24.48,14.4,30.239998,21.5,43.2,1010.42,0,0,0,0,0.027885
2020/09/26 02:19:00.004,n,255,17.64,14.76,22.319998,21.5,41.5,1010.42,0,0,0,0,0.028725
2020/09/26 02:20:00.000,n,284,16.2,9.36,24.84,21.5,41.2,1010.42,0,0,0,0,0.023537
2020/09/26 02:21:00.000,n,260,23.759998,20.880002,28.8,21.5,41.9,1010.52,0,0,0,0,0.023537
2020/09/26 02:22:00.011,n,278,12.6,7.92,15.12,21.4,41.2,1010.52,0,0,0,0,0.030479
2020/09/26 02:23:00.008,n,263,24.48,16.56,28.44,21.4,40.9,1010.52,0,0,0,0,0.021782
2020/09/26 02:24:00.005,n,258,13.32,12.24,16.2,21.3,40.6,1010.52,0,0,0,0,0.023537
2020/09/26 02:25:00.000,n,248,15.12,12.6,17.64,21.2,40.1,1010.52,0,0,0,0,0.017433
2020/09/26 02:26:00.000,n,264,11.52,8.64,14.76,21.2,39.4,1010.52,0,0,0,0,0.021782
2020/09/26 02:27:00.000,n,235,20.880002,15.12,24.119998,21.1,39.2,1010.62,0,0,0,0,0.022659
2020/09/26 02:28:00.000,n,255,19.44,10.440002,25.919998,21.1,38.3,1010.52,0,0,0,0,0.024376
2020/09/26 02:29:00.006,n,261,25.56,16.919998,32.399998,21.1,37.7,1010.52,0,0,0,0,0.021782
2020/09/26 02:30:00.003,n,267,23.04,20.16,25.56,21,38,1010.52,0,0,0,0,0.022659
2020/09/26 02:31:00.000,n,244,24.119998,16.919998,33.119998,21,37.4,1010.62,0,0,0,0,0.020027
2020/09/26 02:32:00.013,n,266,19.8,14.4,23.4,20.9,36,1010.62,0,0,0,0,0.020027
2020/09/26 02:33:00.010,n,293,31.319998,26.64,34.56,20.8,35.3,1010.52,0,0,0,0,0.020905
2020/09/26 02:34:00.000,n,250,36,31.68,39.6,20.7,35.5,1010.62,0,0,0,0,0.018311
2020/09/26 02:35:00.000,n,276,25.56,19.08,31.319998,20.7,34.4,1010.62,0,0,0,0,0.018311
2020/09/26 02:36:00.001,n,277,24.48,21.599998,28.44,20.6,34,1010.62,0,0,0,0,0.020905
2020/09/26 02:37:00.000,n,246,20.519998,17.28,22.68,20.6,32.8,1010.72,0,0,0,0,0.012169
2020/09/26 02:38:00.000,n,268,19.08,16.56,21.24,20.5,33.3,1010.62,0,0,0,0,0.02964
2020/09/26 02:39:00.008,n,263,33.119998,25.199998,39.6,20.4,35.3,1010.72,0,0,0,0,0.033951
2020/09/26 02:40:00.000,n,283,16.56,13.32,18.72,20.3,34.1,1010.72,0,0,0,0,0.033951
2020/09/26 02:41:00.012,n,277,30.96,28.8,33.839996,20.3,34.5,1010.72,0,0,0,0,0.033951
2020/09/26 02:42:00.009,n,253,25.56,17.28,30.96,20.1,33.9,1010.62,0,0,0,0,0.033073
2020/09/26 02:43:00.000,n,261,28.08,24.84,30.599998,20.1,35.2,1010.62,0,0,0,0,0.032234
2020/09/26 02:44:00.000,n,262,33.119998,27.72,37.08,20,36.9,1010.72,0,0,0,0,0.030479
2020/09/26 02:45:00.000,n,269,34.2,29.16,43.56,19.9,37.3,1010.72,0,0,0,0,0.030479
2020/09/26 02:46:00.000,n,251,21.599998,20.519998,23.4,19.8,35.3,1010.72,0,0,0,0,0.028725
2020/09/26 02:47:00.000,n,263,15.12,12.96,16.919998,19.8,34.2,1010.82,0,0,0,0,0.030479
2020/09/26 02:48:00.007,n,280,20.880002,18.359998,23.759998,19.7,38.6,1010.62,0,0,0,0,0.023499
2020/09/26 02:49:00.005,n,257,37.8,28.8,43.56,19.7,37.9,1010.82,0,0,0,0,0.025291
2020/09/26 02:50:00.002,n,264,17.28,15.84,18.72,19.6,36.4,1010.82,0,0,0,0,0.020943
2020/09/26 02:51:00.015,n,283,27,15.48,37.8,19.5,37.1,1010.82,0,0,0,0,0.032196
2020/09/26 02:52:00.001,n,271,27,23.759998,33.48,19.5,37.1,1010.82,0,0,0,0,0.032196
2020/09/26 02:53:00.000,n,268,22.319998,16.919998,25.56,19.4,36.9,1010.92,0,0,0,0,0.020866
2020/09/26 02:54:00.000,n,269,16.919998,12.96,24.119998,19.4,36.3,1010.92,0,0,0,0,0.033073
2020/09/26 02:55:00.000,n,252,15.84,12.6,19.08,19.3,36.3,1010.92,0,0,0,0,0.031319
2020/09/26 02:56:00.005,n,272,11.16,9.36,14.4,19.3,36.3,1011.12,0,0,0,0,0.029564
2020/09/26 02:57:00.003,n,280,21.24,15.84,24.84,19.2,36.8,1011.12,0,0,0,0,0.024338
2020/09/26 02:58:00.000,n,263,21.24,18,26.28,19.2,37.1,1011.02,0,0,0,0,0.033073
2020/09/26 02:59:00.008,n,270,27,23.04,31.68,19.1,37.1,1011.12,0,0,0,0,0.040932
2020/09/26 03:00:00.007,n,274,19.8,19.08,20.880002,19,37,1011.12,0,0,0,0,0.037422
2020/09/26 03:01:00.000,n,262,25.199998,19.8,28.08,19,37.6,1011.02,0,0,0,0,0.0383
2020/09/26 03:02:00.000,n,236,14.4,4.68,24.119998,19,36.6,1011.02,0,0,0,0,0.0383
2020/09/26 03:03:00.000,n,242,20.519998,18.359998,23.759998,18.9,38,1011.12,0,0,0,0,0.03479
2020/09/26 03:04:00.000,n,260,13.68,11.88,16.2,18.9,37.1,1011.02,0,0,0,0,0.036545
2020/09/26 03:05:00.007,n,255,14.76,13.32,15.84,18.8,37.3,1011.12,0,0,0,0,0.032196
2020/09/26 03:06:00.005,n,246,10.08,2.16,14.4,18.8,37.5,1011.12,0,0,0,0,0.031319
2020/09/26 03:07:00.001,n,274,20.519998,16.56,24.119998,18.7,38.3,1011.12,0,0,0,0,0.026093
2020/09/26 03:08:00.014,n,281,28.08,26.28,29.16,18.7,39.1,1011.12,0,0,0,0,0.029564
2020/09/26 03:09:00.010,n,245,18,15.12,20.880002,18.6,38.2,1011.12,0,0,0,0,0.029564
2020/09/26 03:10:00.000,n,267,24.119998,20.880002,26.64,18.6,39.2,1011.12,0,0,0,0,0.025215
2020/09/26 03:11:00.000,n,272,29.88,24.119998,33.119998,18.5,40.3,1011.12,0,0,0,0,0.026093
2020/09/26 03:12:00.004,n,261,20.880002,19.08,26.64,18.5,39.7,1011.12,0,0,0,0,0.020866
2020/09/26 03:13:00.001,n,310,14.76,3.6,23.759998,18.4,39,1011.12,0,0,0,0,0.021744
2020/09/26 03:14:00.000,n,275,27,20.880002,34.92,18.4,40,1011.22,0,0,0,0,0.023499
2020/09/26 03:15:00.000,n,265,26.64,24.119998,31.68,18.3,39.8,1011.12,0,0,0,0,0.027847
2020/09/26 03:16:00.004,n,244,19.08,15.48,21.24,18.3,39.5,1011.22,0,0,0,0,0.031357
2020/09/26 03:17:00.002,n,260,24.48,16.56,32.760002,18.3,40,1011.12,0,0,0,0,0.032196
2020/09/26 03:18:00.016,n,246,15.12,11.88,19.8,18.2,39.9,1011.22,0,0,0,0,0.026131
2020/09/26 03:19:00.000,n,247,24.84,20.880002,30.599998,18.2,39.7,1011.22,0,0,0,0,0.029602
2020/09/26 03:20:00.000,n,261,15.48,7.2,23.759998,18.2,39.8,1011.22,0,0,0,0,0.028763
2020/09/26 03:21:00.000,n,272,16.56,9.72,22.319998,18.1,39.8,1011.32,0,0,0,0,0.028763
2020/09/26 03:22:00.004,n,276,22.319998,16.919998,33.48,18.1,39.6,1011.22,0,0,0,0,0.027847
2020/09/26 03:23:00.000,n,246,16.2,13.32,22.319998,18,39.2,1011.22,0,0,0,0,0.031357
2020/09/26 03:24:00.007,n,271,27.359998,21.96,28.8,18,40.4,1011.22,0,0,0,0,0.035706
2020/09/26 03:25:00.005,n,242,25.199998,18.359998,32.399998,17.9,40.9,1011.32,0,0,0,0,0.034828
2020/09/26 03:26:00.002,n,254,32.039998,26.28,42.48,17.9,41.5,1011.32,0,0,0,0,0.036583
2020/09/26 03:27:00.007,n,280,21.599998,14.4,30.599998,17.8,40.6,1011.42,0,0,0,0,0.031357
2020/09/26 03:28:00.000,n,253,20.880002,18.72,23.04,17.8,40.5,1011.22,0,0,0,0,0.030479
2020/09/26 03:29:00.000,n,258,24.119998,14.4,34.56,17.7,40.8,1011.22,0,0,0,0,0.027885
2020/09/26 03:30:00.000,n,269,16.919998,10.08,22.319998,17.7,41.1,1011.22,0,0,0,0,0.022659
2020/09/26 03:31:00.000,n,277,22.319998,15.84,27.72,17.6,41.2,1011.32,0,0,0,0,0.019188
2020/09/26 03:32:00.008,n,240,16.56,13.32,21.24,17.6,40.4,1011.32,0,0,0,0,0.026131
2020/09/26 03:33:00.005,n,282,14.76,11.52,20.519998,17.5,41.1,1011.32,0,0,0,0,0.025253
2020/09/26 03:34:00.001,n,255,32.039998,22.319998,42.12,17.5,41.8,1011.32,0,0,0,0,0.025253
2020/09/26 03:35:00.007,n,263,27.359998,23.759998,30.599998,17.4,40.9,1011.32,0,0,0,0,0.024376
2020/09/26 03:36:00.004,n,278,11.52,8.28,16.2,17.4,40.6,1011.32,0,0,0,0,0.033112
2020/09/26 03:37:00.000,n,278,5.4,1.44,9.72,17.4,40.7,1011.42,0,0,0,0,0.033951
2020/09/26 03:38:00.000,n,261,16.2,15.12,17.28,17.3,40.3,1011.42,0,0,0,0,0.033112
2020/09/26 03:39:00.000,n,238,16.2,14.76,17.64,17.3,40.7,1011.42,0,0,0,0,0.029602
2020/09/26 03:40:00.000,n,274,20.880002,14.4,28.08,17.3,41.1,1011.42,0,0,0,0,0.032234
2020/09/26 03:41:00.006,n,322,16.2,12.6,19.08,17.2,40.4,1011.42,0,0,0,0,0.032234
2020/09/26 03:42:00.003,n,268,20.880002,19.8,21.599998,17.2,40.9,1011.42,0,0,0,0,0.031319
2020/09/26 03:43:00.001,n,282,22.68,20.519998,24.84,17.2,40.8,1011.52,0,0,0,0,0.031319
2020/09/26 03:44:00.000,n,269,35.28,33.48,37.08,17.1,41.2,1011.52,0,0,0,0,0.026131
2020/09/26 03:45:00.004,n,261,17.64,12.24,20.880002,17.1,41.4,1011.52,0,0,0,0,0.024376
2020/09/26 03:46:00.001,n,274,18.359998,16.56,20.880002,17.1,40.8,1011.62,0,0,0,0,0.027008
2020/09/26 03:47:00.000,n,239,20.519998,10.440002,23.759998,17.1,40.8,1011.52,0,0,0,0,0.033951
2020/09/26 03:48:00.000,n,290,21.599998,19.08,24.84,17,41.5,1011.52,0,0,0,0,0.030479
2020/09/26 03:49:00.005,n,257,29.88,26.28,33.48,17,41.4,1011.52,0,0,0,0,0.029602
2020/09/26 03:50:00.001,n,249,20.16,19.08,22.319998,17,40.9,1011.62,0,0,0,0,0.028725
2020/09/26 03:51:00.000,n,269,11.88,9,16.919998,17,40.6,1011.52,0,0,0,0,0.025253
2020/09/26 03:52:00.012,n,273,28.8,23.4,33.839996,16.9,41.4,1011.62,0,0,0,0,0.026131
2020/09/26 03:53:00.009,n,270,19.08,17.64,19.8,16.9,40.7,1011.72,0,0,0,0,0.01915
2020/09/26 03:54:00.006,n,260,27.72,21.96,35.64,16.9,41.3,1011.72,0,0,0,0,0.027885
2020/09/26 03:55:00.000,n,270,24.119998,19.44,30.96,16.9,41.4,1011.62,0,0,0,0,0.023537
2020/09/26 03:56:00.000,n,287,25.919998,24.48,29.16,16.8,40.3,1011.62,0,0,0,0,0.022659
2020/09/26 03:57:00.000,n,249,23.759998,18.72,27,16.8,41,1011.72,0,0,0,0,0.01915
2020/09/26 03:58:00.000,n,321,7.56,6.84,8.28,16.8,41.3,1011.72,0,0,0,0,0.025253
2020/09/26 03:59:00.007,n,266,14.4,11.52,18.359998,16.8,40.4,1011.82,0,0,0,0,0.021744
2020/09/26 04:00:00.005,n,264,30.239998,21.24,35.28,16.700002,41.5,1011.72,0,0,0,0,0.020905
2020/09/26 04:01:00.001,n,242,6.84,1.08,12.24,16.700002,40.2,1011.82,0,0,0,0,0.020027
2020/09/26 04:02:00.014,n,263,20.16,8.64,28.08,16.700002,40.2,1011.82,0,0,0,0,0.022621
2020/09/26 04:03:00.010,n,288,23.759998,19.08,30.96,16.700002,40.9,1011.82,0,0,0,0,0.031319
2020/09/26 04:04:00.000,n,247,21.96,18.72,27.72,16.700002,40.7,1011.82,0,0,0,0,0.028725
2020/09/26 04:05:00.000,n,253,25.919998,25.199998,27.359998,16.700002,40.9,1011.82,0,0,0,0,0.028725
2020/09/26 04:06:00.000,n,314,14.4,7.2,20.880002,16.700002,40.4,1011.82,0,0,0,0,0.02697
2020/09/26 04:07:00.000,n,254,10.8,6.12,19.08,16.700002,39.7,1011.92,0,0,0,0,0.024338
2020/09/26 04:08:00.000,n,257,19.8,14.4,27.72,16.6,40.4,1011.82,0,0,0,0,0.024338
2020/09/26 04:09:00.008,n,251,15.84,12.96,21.96,16.6,40.1,1011.82,0,0,0,0,0.023499
2020/09/26 04:10:00.005,n,257,19.08,13.68,23.4,16.6,40.3,1011.82,0,0,0,0,0.022621
2020/09/26 04:11:00.002,n,272,30.239998,25.919998,36.36,16.6,40.8,1011.82,0,0,0,0,0.031357
2020/09/26 04:12:00.004,n,260,24.48,21.599998,34.2,16.6,40.7,1011.82,0,0,0,0,0.035706
2020/09/26 04:13:00.001,n,274,25.56,22.319998,30.599998,16.6,40.7,1011.92,0,0,0,0,0.032196
2020/09/26 04:14:00.000,n,244,25.919998,16.56,29.16,16.6,40.1,1011.92,0,0,0,0,0.030479
2020/09/26 04:15:00.000,n,260,17.64,12.96,21.24,16.5,40.1,1011.92,0,0,0,0,0.027008
2020/09/26 04:16:00.000,n,255,19.08,16.2,25.56,16.5,40.3,1011.92,0,0,0,0,0.029602
2020/09/26 04:17:00.006,n,262,38.88,36,46.8,16.5,42.1,1011.92,0,0,0,0,0.024376
2020/09/26 04:18:00.000,n,262,17.64,4.68,27,16.5,40.9,1012.02,0,0,0,0,0.024376
2020/09/26 04:19:00.008,n,270,18.359998,17.28,19.44,16.5,39.8,1012.02,0,0,0,0,0.026131
2020/09/26 04:20:00.005,n,292,12.6,10.440002,14.76,16.4,40.1,1012.02,0,0,0,0,0.025253
2020/09/26 04:21:00.002,n,279,25.919998,24.84,27.359998,16.4,40.6,1012.02,0,0,0,0,0.032196
2020/09/26 04:22:00.000,n,267,20.16,15.12,24.119998,16.4,39.9,1012.02,0,0,0,0,0.035667
2020/09/26 04:23:00.000,n,244,20.519998,14.76,29.16,16.4,40.3,1012.02,0,0,0,0,0.036545
2020/09/26 04:24:00.000,n,262,18,12.24,23.4,16.4,39.8,1012.02,0,0,0,0,0.034828
2020/09/26 04:25:00.002,n,273,42.48,38.16,45.36,16.4,40.4,1012.02,0,0,0,0,0.033951
2020/09/26 04:26:00.008,n,256,30.599998,21.96,36,16.4,40.5,1012.02,0,0,0,0,0.026131
2020/09/26 04:27:00.000,n,249,26.64,22.319998,29.88,16.3,40.8,1012.02,0,0,0,0,0.031319
2020/09/26 04:28:00.010,n,267,19.8,17.28,21.599998,16.3,39.8,1012.12,0,0,0,0,0.024376
2020/09/26 04:29:00.006,n,244,25.199998,20.16,31.319998,16.3,39.4,1012.02,0,0,0,0,0.029602
2020/09/26 04:30:00.004,n,255,19.08,11.88,22.319998,16.3,39.3,1012.02,0,0,0,0,0.021744
2020/09/26 04:31:00.001,n,257,15.48,14.4,16.919998,16.3,39.3,1012.12,0,0,0,0,0.029602
2020/09/26 04:32:00.000,n,251,21.24,15.48,24.84,16.3,39.7,1012.12,0,0,0,0,0.026131
2020/09/26 04:33:00.000,n,269,15.84,14.04,17.64,16.200002,39.2,1012.22,0,0,0,0,0.022621
2020/09/26 04:34:00.000,n,262,14.76,14.04,15.12,16.200002,38.9,1012.22,0,0,0,0,0.020905
2020/09/26 04:35:00.007,n,263,9,5.4,19.08,16.200002,39.1,1012.22,0,0,0,0,0.024376
2020/09/26 04:36:00.005,n,254,16.2,11.16,18.72,16.200002,39.3,1012.22,0,0,0,0,0.024376
2020/09/26 04:37:00.001,n,276,15.12,14.04,15.84,16.200002,38.5,1012.22,0,0,0,0,0.030479
2020/09/26 04:38:00.011,n,263,14.04,10.440002,18,16.200002,39.3,1012.32,0,0,0,0,0.03746
2020/09/26 04:39:00.009,n,238,10.8,5.76,15.48,16.200002,39.1,1012.22,0,0,0,0,0.033989
2020/09/26 04:40:00.000,n,251,9,6.48,10.440002,16.1,38.3,1012.32,0,0,0,0,0.035706
2020/09/26 04:41:00.003,n,264,10.8,8.28,15.48,16.1,38.5,1012.32,0,0,0,0,0.039215